[ ตารางข้อมูล ] [ Min-Max ] [ วันนี้2 ] [ วันนี้4 ] [ เทียบ-A 3วัน ] [ เทียบ-B 4วัน ]   

วันนี้2   [ ◀ ช่วงเก่ากว่า ] [ ช่วงที่ 54 ] [ ช่วงใหม่กว่า ▶ ] [ ล่าสุด ]    [ 3 ชั่วโมง ] [ 6 ชั่วโมง ] [ 12 ชั่วโมง ] [ 24 ชั่วโมง ]   วันนี้2

อุณภูมิในตู้ Knockdown4529  ราย 6 ชั่วโมง  ที่วัดได้ ในช่วงวันเวลา 19/08/2026 (22:30) ถึง 20/08/2026 (04:30) 
ความชื้นในตู้ Knockdown4529  ราย 6 ชั่วโมง  ที่วัดได้ ในช่วงวันเวลา 19/08/2026 (22:30) ถึง 20/08/2026 (04:30) 
การใช้ไฟฟ้าในตู้ Knockdown4529  ราย 6 ชั่วโมง  ที่วัดได้ ในช่วงวันเวลา 19/08/2026 (22:30) ถึง 20/08/2026 (04:30) 

  DS18B20SHTC3PZEM-004TWiFi 
IDDate d/m/Y & Timedata1
สูง
data2
ต่ำ
data3
นอก
temp
pcb
hum
pcb
VoltAmpWattrssiTime
 14246  20/08/2026 04:29:06  29.6  29.9  26.4  30.5  68.3  234.1  0.04  4.6  -75  04:29 
 14245  20/08/2026 04:24:23  29.6  29.9  26.4  30.7  68.3  236.4  0.04  4.6  -78  04:24 
 14244  20/08/2026 04:19:40  29.7  29.9  26.6  30.5  68.4  236.1  0.04  4.6  -77  04:19 
 14243  20/08/2026 04:14:56  29.7  29.9  26.8  30.7  68.3  234.0  0.04  4.6  -77  04:14 
 14242  20/08/2026 04:10:13  29.7  29.9  26.9  30.7  68.4  235.9  0.04  4.6  -77  04:10 
 14241  20/08/2026 04:05:29  29.8  29.9  26.9  30.6  68.3  233.9  0.04  4.6  -77  04:05 
 14240  20/08/2026 04:00:46  29.8  29.9  26.9  30.6  68.4  236.3  0.04  4.6  -76  04:00 
 14239  20/08/2026 03:56:02  29.8  30.0  26.9  30.7  68.3  234.2  0.04  4.6  -78  03:56 
 14238  20/08/2026 03:51:19  29.8  30.0  26.8  30.6  68.4  235.8  0.04  4.6  -78  03:51 
 14237  20/08/2026 03:46:34  29.8  30.1  26.9  30.9  68.3  233.8  0.04  4.6  -79  03:46 
 14236  20/08/2026 03:41:51  29.9  30.1  26.8  30.8  68.3  235.5  0.04  4.6  -78  03:41 
 14235  20/08/2026 03:37:08  29.9  30.1  26.9  31.0  68.3  235.6  0.04  4.6  -78  03:37 
 14234  20/08/2026 03:32:24  29.9  30.1  26.9  30.8  68.3  233.5  0.04  4.6  -78  03:32 
 14233  20/08/2026 03:27:41  29.9  30.1  26.8  31.0  68.4  235.6  0.04  4.6  -77  03:27 
 14232  20/08/2026 03:22:57  30.0  30.2  26.9  31.0  68.3  234.8  0.04  4.6  -75  03:22 
 14231  20/08/2026 03:18:13  30.0  30.2  27.0  31.0  68.3  235.0  0.04  4.6  -75  03:18 
 14230  20/08/2026 03:13:30  30.0  30.2  27.1  30.8  68.3  233.9  0.04  4.6  -75  03:13 
 14229  20/08/2026 03:08:47  30.1  30.2  27.2  30.9  68.2  235.7  0.04  4.6  -76  03:08 
 14228  20/08/2026 03:04:04  30.1  30.2  27.4  31.0  68.2  235.2  0.04  4.6  -78  03:04 
 14227  20/08/2026 02:59:21  30.1  30.2  27.3  31.0  68.2  233.9  0.04  4.6  -75  02:59 
 14226  20/08/2026 02:54:37  30.1  30.2  27.1  30.9  68.3  234.8  0.04  4.6  -75  02:54 
 14225  20/08/2026 02:49:54  30.1  30.3  27.3  31.1  68.3  233.6  0.04  4.6  -77  02:49 
 14224  20/08/2026 02:45:11  30.1  30.3  27.5  31.0  68.3  235.2  0.04  4.6  -77  02:45 
 14223  20/08/2026 02:40:28  30.1  30.3  27.5  31.1  68.3  233.4  0.04  4.6  -75  02:40 

Data every 5 minute.


ใช้เวลาประมวลผล 0.01956 วินาที